Voltar ao catálogo

ONEWEB-0445

AtivoComunicaçõesPO
NORAD 51639·PAYLOAD·🇬🇧 United Kingdom

Lançado Feb 10, 2022 de Guiana Space Centre

Loading…

Próximas Passagens (próximas 24 horas)

TLE

AtualizadoSource: CelesTrak SupGP

Época: Sep 14, 2026, 18:48 UTC

1 51639C 22012T   26257.78383519  .00001616  00000+0  46340-2 0  2576
2 51639  87.8918  18.4214 0001601 103.3221   6.6963 13.10374468    15

Acompanhe ONEWEB-0445 em tempo real com AllMySat

Download on the App Store